Tracking 20376 objects as of 20-Feb-2020
HD Live streaming from Space Station
objects crossing your sky now
Track the group of recently launched Starlink satellites

GORIZONT 2

Track GORIZONT 2 now!
GORIZONT 2 is classified as:


NORAD ID: 11440
Int'l Code: 1979-062A
Perigee: 35,781.6 km
Apogee: 35,823.3 km
Inclination: 11.1 °
Period: 1,436.5 minutes
Semi major axis: 42173 km
RCS: 3.981 m2 (large)
Launch date: July 5, 1979
Source: Commonwealth of Independent States (former USSR) (CIS)
Launch site: TYURATAM MISSILE AND SPACE COMPLEX (TTMTR)
aabbcc
Your satellite tracking list
Your tracking list is empty




NASA's NSSDC Master Catalog

Two Line Element Set (TLE):
1 11440U 79062A   20050.76635019 -.00000027 +00000-0 +00000-0 0  9998
2 11440 011.1439 311.9564 0004944 340.0399 201.3218 01.00240600114869
Source of the keplerian elements: AFSPC